This is the latest recevied weather packets stored in our database for station/object WX2NJ. If no packets are shown the sender has not sent any weather packets the latest 10 day(s).
| Time | Temp. | Humidity | Pressure | Rain* | Wind** | Luminosity | Snow |
|---|---|---|---|---|---|---|---|
| 1778008052 | 25.56° C | 50% | 1013.6 hPa | 0 mm | - | 639 W/m² | - |
| 1778007752 | 25.56° C | 51% | 1013.8 hPa | 0 mm | - | 634 W/m² | - |
| 1778007449 | 25.56° C | 49% | 1013.8 hPa | 0 mm | - | 554 W/m² | - |
| 1778007145 | 25.56° C | 50% | 1013.9 hPa | 0 mm | - | 651 W/m² | - |
| 1778006841 | 25.56° C | 51% | 1013.6 hPa | 0 mm | - | 727 W/m² | - |
| 1778006539 | 25.56° C | 53% | 1013.9 hPa | 0 mm | - | 723 W/m² | - |
| 1778006235 | 25° C | 54% | 1013.9 hPa | 0 mm | - | 628 W/m² | - |
| 1778005933 | 24.44° C | 55% | 1014 hPa | 0 mm | - | 531 W/m² | - |
| 1778005629 | 24.44° C | 56% | 1014 hPa | 0 mm | - | 729 W/m² | - |
| 1778005326 | 24.44° C | 54% | 1014.2 hPa | 0 mm | - | 713 W/m² | - |
| 1778005022 | 24.44° C | 55% | 1014.2 hPa | 0 mm | - | 757 W/m² | - |
| 1778004720 | 25° C | 54% | 1014 hPa | 0 mm | - | 751 W/m² | - |
| 1778004416 | 25° C | 55% | 1014.2 hPa | 0 mm | - | 702 W/m² | - |
| 1778004113 | 25° C | 54% | 1014.3 hPa | 0 mm | - | 776 W/m² | - |
| 1778003809 | 25° C | 54% | 1014.2 hPa | 0 mm | - | 758 W/m² | - |
| 1778003506 | 24.44° C | 54% | 1014.4 hPa | 0 mm | - | 754 W/m² | - |
| 1778003203 | 25° C | 53% | 1014.2 hPa | 0 mm | - | 706 W/m² | - |
| 1778002899 | 24.44° C | 54% | 1014.1 hPa | 0 mm | - | 717 W/m² | - |
| 1778002596 | 23.89° C | 55% | 1014.2 hPa | 0 mm | - | 774 W/m² | - |
| 1778002292 | 24.44° C | 54% | 1014.3 hPa | 0 mm | - | 681 W/m² | - |
| 1778001990 | 23.89° C | 55% | 1014.3 hPa | 0 mm | - | 750 W/m² | - |
| 1778001686 | 24.44° C | 54% | 1014.3 hPa | 0 mm | - | 596 W/m² | - |
| 1778001381 | 24.44° C | 55% | 1014.4 hPa | 0 mm | - | 552 W/m² | - |
| 1778001079 | 24.44° C | 55% | 1014.3 hPa | 0 mm | - | 626 W/m² | - |
| 1778000776 | 24.44° C | 54% | 1014 hPa | 0 mm | - | 575 W/m² | - |
* Rain latest hour (hover to see other rain measurements)
** Current wind speed in m/s (hover to see current wind gust speed)